Location: Cortada Guamacho
(10.5667°N, 67.0833°W)
Time: 03:13:43
(UTC+00:00)

SWIFT - Pass Details

Date: 04 July 2022
Orbit: 539 x 553 km, 20.6° (Epoch: 13 August)

Event Time Altitude Azimuth Distance (km) Brightness Sun altitude
Rises 23:31:23 0° 245° (WSW) 2,708 6.5 -9.1°
Reaches altitude 10° 23:33:41 10° 242° (WSW) 1,813 5.5 -9.6°
Maximum altitude 23:37:52 66° 161° (SSE) 595 2.3 -10.5°
Drops below altitude 10° 23:42:03 10° 78° (ENE) 1,806 4.5 -11.4°
Enters shadow 23:42:04 10° 77° (ENE) 1,811 4.5 -11.4°
